Time,TemperatureF,DewpointF,PressureIn,WindDirection,WindDirectionDegrees,WindSpeedMPH,WindSpeedGustMPH,Humidity,HourlyPrecipIn,Conditions,Clouds,dailyrainin,SoftwareType,DateUTC
2013-08-25 00:02:00,80.7,71.6,29.98,SE,134,6.8,11.5,74,0.00,CLR,SKC,0.00,WeatherDisplay:10.37,2013-08-25 05:02:00,
2013-08-25 00:07:00,80.6,71.5,29.99,South,180,3.2,6.9,74,0.00,CLR,SKC,0.00,WeatherDisplay:10.37,2013-08-25 05:07:00,
2013-08-25 00:12:00,80.5,71.4,29.99,SW,222,7.7,12.0,74,0.00,CLR,SKC,0.00,WeatherDisplay:10.37,2013-08-25 05:12:00,
2013-08-25 00:17:00,80.5,71.4,29.99,SE,124,2.9,11.5,74,0.00,CLR,SKC,0.00,WeatherDisplay:10.37,2013-08-25 05:17:00,
2013-08-25 00:22:00,80.4,71.3,29.99,South,183,7.4,9.2,74,0.00,CLR,SKC,0.00,WeatherDisplay:10.37,2013-08-25 05:22:00,
2013-08-25 00:27:00,80.3,71.6,29.98,SSW,206,7.2,10.4,75,0.00,CLR,SKC,0.00,WeatherDisplay:10.37,2013-08-25 05:27:00,
2013-08-25 00:32:00,80.2,71.6,29.98,South,183,5.7,10.4,75,0.00,CLR,SKC,0.00,WeatherDisplay:10.37,2013-08-25 05:32:00,
2013-08-25 00:37:00,80.0,71.4,29.98,SSE,150,5.6,7.0,75,0.00,CLR,SKC,0.00,WeatherDisplay:10.37,2013-08-25 05:37:00,
2013-08-25 00:42:00,79.9,71.3,29.98,South,176,7.9,10.4,75,0.00,CLR,SKC,0.00,WeatherDisplay:10.37,2013-08-25 05:42:00,
2013-08-25 00:47:00,79.7,71.5,29.98,WSW,250,7.1,13.8,76,0.00,CLR,SKC,0.00,WeatherDisplay:10.37,2013-08-25 05:47:00,
2013-08-25 00:52:00,79.5,71.3,29.98,SSE,156,4.6,8.1,76,0.00,CLR,SKC,0.00,WeatherDisplay:10.37,2013-08-25 05:52:00,
2013-08-25 00:57:00,79.4,71.2,29.98,SE,139,6.5,11.5,76,0.00,CLR,SKC,0.00,WeatherDisplay:10.37,2013-08-25 05:57:00,
2013-08-25 01:02:00,79.2,71.4,29.98,SW,218,3.5,6.9,77,0.00,CLR,SKC,0.00,WeatherDisplay:10.37,2013-08-25 06:02:00,
2013-08-25 01:07:00,79.1,71.3,29.98,SSW,203,4.3,8.1,77,0.00,CLR,SKC,0.00,WeatherDisplay:10.37,2013-08-25 06:07:00,
2013-08-25 01:12:00,79.0,71.2,29.98,South,175,5.6,10.4,77,0.00,CLR,SKC,0.00,WeatherDisplay:10.37,2013-08-25 06:12:00,
2013-08-25 01:17:00,79.0,71.2,29.98,SE,135,6.1,10.4,77,0.00,CLR,SKC,0.00,WeatherDisplay:10.37,2013-08-25 06:17:00,
2013-08-25 01:22:00,78.9,71.1,29.99,SSW,194,4.6,10.4,77,0.00,CLR,SKC,0.00,WeatherDisplay:10.37,2013-08-25 06:22:00,
2013-08-25 01:27:00,78.8,71.0,29.99,South,172,5.6,10.4,77,0.00,CLR,SKC,0.00,WeatherDisplay:10.37,2013-08-25 06:27:00,
2013-08-25 01:32:00,78.6,71.2,29.99,SE,140,3.8,6.9,78,0.00,CLR,SKC,0.00,WeatherDisplay:10.37,2013-08-25 06:32:00,
2013-08-25 01:37:00,78.5,71.1,29.99,SSW,193,4.8,4.8,78,0.00,CLR,SKC,0.00,WeatherDisplay:10.37,2013-08-25 06:37:00,
2013-08-25 01:42:00,78.4,71.0,29.99,South,179,5.2,11.0,78,0.00,CLR,SKC,0.00,WeatherDisplay:10.37,2013-08-25 06:42:00,
2013-08-25 01:47:00,78.3,70.9,29.99,ESE,122,4.5,9.2,78,0.00,CLR,SKC,0.00,WeatherDisplay:10.37,2013-08-25 06:47:00,
2013-08-25 01:52:00,78.2,71.2,29.99,SSW,200,6.3,8.1,79,0.00,CLR,SKC,0.00,WeatherDisplay:10.37,2013-08-25 06:52:00,
2013-08-25 01:57:00,78.1,71.1,29.99,SW,214,5.4,10.4,79,0.00,CLR,SKC,0.00,WeatherDisplay:10.37,2013-08-25 06:57:00,
2013-08-25 02:02:00,78.0,71.0,29.99,SSW,194,6.5,12.7,79,0.00,CLR,SKC,0.00,WeatherDisplay:10.37,2013-08-25 07:02:00,
2013-08-25 02:07:00,78.0,71.0,29.99,SSE,163,2.2,6.9,79,0.00,CLR,SKC,0.00,WeatherDisplay:10.37,2013-08-25 07:07:00,
2013-08-25 02:12:00,77.8,70.8,29.99,SSE,162,7.0,10.4,79,0.00,CLR,SKC,0.00,WeatherDisplay:10.37,2013-08-25 07:12:00,
2013-08-25 02:17:00,77.8,71.1,29.99,SSE,165,8.0,9.2,80,0.00,CLR,SKC,0.00,WeatherDisplay:10.37,2013-08-25 07:17:00,
2013-08-25 02:23:00,77.7,71.0,29.99,SSW,210,3.1,4.0,80,0.00,CLR,SKC,0.00,WeatherDisplay:10.37,2013-08-25 07:23:00,
2013-08-25 02:28:00,77.6,70.9,29.99,SSE,161,4.6,6.9,80,0.00,CLR,SKC,0.00,WeatherDisplay:10.37,2013-08-25 07:28:00,
2013-08-25 02:33:00,77.5,70.8,29.99,SSW,193,8.1,15.0,80,0.00,CLR,SKC,0.00,WeatherDisplay:10.37,2013-08-25 07:33:00,
2013-08-25 02:38:00,77.4,70.7,30.00,SSE,150,4.1,8.1,80,0.00,CLR,SKC,0.00,WeatherDisplay:10.37,2013-08-25 07:38:00,
2013-08-25 02:43:00,77.4,70.7,30.00,SSE,162,4.1,9.2,80,0.00,CLR,SKC,0.00,WeatherDisplay:10.37,2013-08-25 07:43:00,
2013-08-25 02:48:00,77.4,70.7,29.99,SSW,194,6.1,11.5,80,0.00,CLR,SKC,0.00,WeatherDisplay:10.37,2013-08-25 07:48:00,
2013-08-25 02:53:00,77.4,70.7,30.00,SSE,163,2.0,3.5,80,0.00,CLR,SKC,0.00,WeatherDisplay:10.37,2013-08-25 07:53:00,
2013-08-25 02:58:00,77.3,70.6,30.00,SSE,158,7.1,11.5,80,0.00,CLR,SKC,0.00,WeatherDisplay:10.37,2013-08-25 07:58:00,
2013-08-25 03:03:00,77.3,70.6,30.00,SW,226,4.7,10.4,80,0.00,CLR,SKC,0.00,WeatherDisplay:10.37,2013-08-25 08:03:00,
2013-08-25 03:08:00,77.2,70.5,30.00,SSW,201,4.2,6.9,80,0.00,CLR,SKC,0.00,WeatherDisplay:10.37,2013-08-25 08:08:00,
2013-08-25 03:13:00,77.2,70.9,30.00,SSE,155,3.9,9.2,81,0.00,CLR,SKC,0.00,WeatherDisplay:10.37,2013-08-25 08:13:00,
2013-08-25 03:18:00,77.1,70.8,30.00,SW,214,6.4,9.2,81,0.00,CLR,SKC,0.00,WeatherDisplay:10.37,2013-08-25 08:18:00,
2013-08-25 03:23:00,77.0,70.7,30.00,South,173,6.4,11.5,81,0.00,CLR,SKC,0.00,WeatherDisplay:10.37,2013-08-25 08:23:00,
2013-08-25 03:28:00,77.0,70.7,30.00,SSE,149,3.2,5.8,81,0.00,CLR,SKC,0.00,WeatherDisplay:10.37,2013-08-25 08:28:00,
2013-08-25 03:33:00,76.9,70.6,30.00,SE,124,5.0,9.2,81,0.00,CLR,SKC,0.00,WeatherDisplay:10.37,2013-08-25 08:33:00,
2013-08-25 03:38:00,76.8,70.5,30.01,SSE,163,5.5,12.7,81,0.00,CLR,SKC,0.00,WeatherDisplay:10.37,2013-08-25 08:38:00,
2013-08-25 03:43:00,76.7,70.4,30.01,SSE,153,5.1,10.4,81,0.00,CLR,SKC,0.00,WeatherDisplay:10.37,2013-08-25 08:43:00,
2013-08-25 03:48:00,76.6,70.7,30.01,South,177,5.9,11.5,82,0.00,CLR,SKC,0.00,WeatherDisplay:10.37,2013-08-25 08:48:00,
2013-08-25 03:53:00,76.5,70.6,30.01,SSE,156,4.3,8.1,82,0.00,CLR,SKC,0.00,WeatherDisplay:10.37,2013-08-25 08:53:00,
2013-08-25 03:58:00,76.5,70.6,30.01,SSE,158,4.1,5.8,82,0.00,CLR,SKC,0.00,WeatherDisplay:10.37,2013-08-25 08:58:00,
2013-08-25 04:03:00,76.4,70.5,30.01,SSW,208,3.5,9.2,82,0.00,CLR,SKC,0.00,WeatherDisplay:10.37,2013-08-25 09:03:00,
2013-08-25 04:08:00,76.3,70.4,30.01,SSE,160,7.0,11.5,82,0.00,CLR,SKC,0.00,WeatherDisplay:10.37,2013-08-25 09:08:00,
2013-08-25 04:13:00,76.2,70.3,30.01,SSW,210,3.7,5.8,82,0.00,CLR,SKC,0.00,WeatherDisplay:10.37,2013-08-25 09:13:00,
2013-08-25 04:18:00,76.1,70.6,30.01,SE,145,3.4,4.6,83,0.00,CLR,SKC,0.00,WeatherDisplay:10.37,2013-08-25 09:18:00,
2013-08-25 04:23:00,76.0,70.5,30.02,SE,142,2.1,3.5,83,0.00,CLR,SKC,0.00,WeatherDisplay:10.37,2013-08-25 09:23:00,
2013-08-25 04:28:00,75.9,70.4,30.02,South,178,4.8,6.9,83,0.00,CLR,SKC,0.00,WeatherDisplay:10.37,2013-08-25 09:28:00,
2013-08-25 04:33:00,75.8,70.3,30.02,SSE,156,2.2,3.5,83,0.00,CLR,SKC,0.00,WeatherDisplay:10.37,2013-08-25 09:33:00,
2013-08-25 04:38:00,75.8,70.3,30.02,SSE,155,3.6,9.2,83,0.00,CLR,SKC,0.00,WeatherDisplay:10.37,2013-08-25 09:38:00,
2013-08-25 04:43:00,75.7,70.2,30.02,SSE,150,4.8,6.9,83,0.00,CLR,SKC,0.00,WeatherDisplay:10.37,2013-08-25 09:43:00,
2013-08-25 04:48:00,75.7,70.2,30.02,South,191,4.7,8.1,83,0.00,CLR,SKC,0.00,WeatherDisplay:10.37,2013-08-25 09:48:00,
2013-08-25 04:53:00,75.7,70.2,30.02,SSE,160,3.2,5.0,83,0.00,CLR,SKC,0.00,WeatherDisplay:10.37,2013-08-25 09:53:00,
2013-08-25 04:58:00,75.6,70.1,30.02,SSE,167,2.9,5.8,83,0.00,CLR,SKC,0.00,WeatherDisplay:10.37,2013-08-25 09:58:00,
2013-08-25 05:03:00,75.5,70.3,30.02,SSW,192,4.0,4.6,84,0.00,CLR,SKC,0.00,WeatherDisplay:10.37,2013-08-25 10:03:00,
2013-08-25 05:08:00,75.5,70.3,30.02,SSE,162,2.8,3.5,84,0.00,CLR,SKC,0.00,WeatherDisplay:10.37,2013-08-25 10:08:00,
2013-08-25 05:13:00,75.4,70.2,30.02,SSW,202,2.7,3.5,84,0.00,CLR,SKC,0.00,WeatherDisplay:10.37,2013-08-25 10:13:00,
2013-08-25 05:18:00,75.3,70.1,30.02,SSE,152,3.6,6.9,84,0.00,CLR,SKC,0.00,WeatherDisplay:10.37,2013-08-25 10:18:00,
2013-08-25 05:23:00,75.2,70.0,30.02,SE,136,4.7,4.7,84,0.00,CLR,SKC,0.00,WeatherDisplay:10.37,2013-08-25 10:23:00,
2013-08-25 05:28:00,75.1,69.9,30.02,SSW,207,3.6,6.9,84,0.00,CLR,SKC,0.00,WeatherDisplay:10.37,2013-08-25 10:28:00,
2013-08-25 05:33:00,75.1,69.9,30.02,SSW,194,1.4,3.5,84,0.00,CLR,SKC,0.00,WeatherDisplay:10.37,2013-08-25 10:33:00,
2013-08-25 05:38:00,75.0,69.8,30.02,South,174,4.3,6.9,84,0.00,CLR,SKC,0.00,WeatherDisplay:10.37,2013-08-25 10:38:00,
2013-08-25 05:43:00,74.9,69.7,30.02,SW,214,2.3,4.6,84,0.00,CLR,SKC,0.00,WeatherDisplay:10.37,2013-08-25 10:43:00,
2013-08-25 05:48:00,74.9,69.7,30.02,SSW,203,2.1,3.5,84,0.00,CLR,SKC,0.00,WeatherDisplay:10.37,2013-08-25 10:48:00,
2013-08-25 05:53:00,74.9,70.1,30.02,SSW,194,2.6,4.6,85,0.00,CLR,SKC,0.00,WeatherDisplay:10.37,2013-08-25 10:53:00,
2013-08-25 05:58:00,74.8,70.0,30.02,SSE,167,2.5,3.5,85,0.00,CLR,SKC,0.00,WeatherDisplay:10.37,2013-08-25 10:58:00,
2013-08-25 06:03:00,74.8,70.0,30.02,SSW,203,4.9,8.1,85,0.00,CLR,SKC,0.00,WeatherDisplay:10.37,2013-08-25 11:03:00,
2013-08-25 06:08:00,74.7,69.9,30.03,SSE,155,4.7,6.9,85,0.00,CLR,SKC,0.00,WeatherDisplay:10.37,2013-08-25 11:08:00,
2013-08-25 06:13:00,74.7,69.9,30.03,SSW,197,1.6,4.6,85,0.00,CLR,SKC,0.00,WeatherDisplay:10.37,2013-08-25 11:13:00,
2013-08-25 06:18:00,74.6,69.8,30.03,SSE,154,3.0,4.0,85,0.00,CLR,SKC,0.00,WeatherDisplay:10.37,2013-08-25 11:18:00,
2013-08-25 06:23:00,74.6,69.8,30.03,SSE,153,3.3,5.8,85,0.00,CLR,SKC,0.00,WeatherDisplay:10.37,2013-08-25 11:23:00,
2013-08-25 06:28:00,74.5,69.7,30.03,SE,145,1.9,3.5,85,0.00,CLR,SKC,0.00,WeatherDisplay:10.37,2013-08-25 11:28:00,
2013-08-25 06:33:00,74.4,69.6,30.03,WSW,241,2.6,3.0,85,0.00,CLR,SKC,0.00,WeatherDisplay:10.37,2013-08-25 11:33:00,
2013-08-25 06:38:00,74.3,69.8,30.03,SSE,159,4.1,5.8,86,0.00,CLR,SKC,0.00,WeatherDisplay:10.37,2013-08-25 11:38:00,
2013-08-25 06:43:00,74.2,69.7,30.03,SSW,194,2.2,6.9,86,0.00,CLR,SKC,0.00,WeatherDisplay:10.37,2013-08-25 11:43:00,
2013-08-25 06:48:00,74.1,69.6,30.03,SSE,162,3.8,4.6,86,0.00,CLR,SKC,0.00,WeatherDisplay:10.37,2013-08-25 11:48:00,
2013-08-25 06:53:00,74.1,69.6,30.04,SE,143,2.2,3.5,86,0.00,CLR,SKC,0.00,WeatherDisplay:10.37,2013-08-25 11:53:00,
2013-08-25 06:58:00,74.0,69.5,30.04,SSW,206,4.2,4.6,86,0.00,CLR,SKC,0.00,WeatherDisplay:10.37,2013-08-25 11:58:00,
2013-08-25 07:03:00,74.1,69.6,30.04,SSW,198,3.5,3.5,86,0.00,CLR,SKC,0.00,WeatherDisplay:10.37,2013-08-25 12:03:00,
2013-08-25 07:08:00,74.2,69.7,30.04,SE,131,2.3,7.0,86,0.00,CLR,SKC,0.00,WeatherDisplay:10.37,2013-08-25 12:08:00,
2013-08-25 07:13:00,74.3,69.8,30.04,South,179,4.3,8.1,86,0.00,CLR,SKC,0.00,WeatherDisplay:10.37,2013-08-25 12:13:00,
2013-08-25 07:18:00,74.4,69.9,30.04,ESE,103,3.6,5.8,86,0.00,CLR,SKC,0.00,WeatherDisplay:10.37,2013-08-25 12:18:00,
2013-08-25 07:23:00,74.6,69.8,30.04,SSE,167,2.3,3.5,85,0.00,CLR,SKC,0.00,WeatherDisplay:10.37,2013-08-25 12:23:00,
2013-08-25 07:28:00,74.8,70.0,30.04,SE,141,3.4,8.1,85,0.00,CLR,SKC,0.00,WeatherDisplay:10.37,2013-08-25 12:28:00,
2013-08-25 07:33:00,75.0,70.2,30.04,SSE,155,4.7,6.9,85,0.00,CLR,SKC,0.00,WeatherDisplay:10.37,2013-08-25 12:33:00,
2013-08-25 07:38:00,75.1,69.9,30.04,SSE,156,4.2,6.9,84,0.00,CLR,SKC,0.00,WeatherDisplay:10.37,2013-08-25 12:38:00,
2013-08-25 07:43:00,75.4,70.2,30.04,SE,142,1.5,2.0,84,0.00,CLR,SKC,0.00,WeatherDisplay:10.37,2013-08-25 12:43:00,
2013-08-25 07:48:00,75.6,70.4,30.04,SE,138,1.0,3.5,84,0.00,CLR,SKC,0.00,WeatherDisplay:10.37,2013-08-25 12:48:00,
2013-08-25 07:53:00,75.8,70.3,30.04,SSE,167,4.9,4.9,83,0.00,CLR,SKC,0.00,WeatherDisplay:10.37,2013-08-25 12:53:00,
2013-08-25 07:58:00,76.0,70.5,30.05,SE,131,3.9,5.8,83,0.00,CLR,SKC,0.00,WeatherDisplay:10.37,2013-08-25 12:58:00,
2013-08-25 08:03:00,76.1,70.6,30.04,SSE,148,4.6,5.0,83,0.00,CLR,SKC,0.00,WeatherDisplay:10.37,2013-08-25 13:03:00,
2013-08-25 08:08:00,76.3,70.4,30.04,South,181,4.2,4.6,82,0.00,CLR,SKC,0.00,WeatherDisplay:10.37,2013-08-25 13:08:00,
2013-08-25 08:13:00,76.6,70.7,30.04,SE,142,5.0,9.2,82,0.00,CLR,SKC,0.00,WeatherDisplay:10.37,2013-08-25 13:13:00,
2013-08-25 08:18:00,76.8,70.9,30.04,SSW,207,3.3,4.6,82,0.00,CLR,SKC,0.00,WeatherDisplay:10.37,2013-08-25 13:18:00,
2013-08-25 08:23:00,77.1,70.8,30.04,SE,142,4.1,11.5,81,0.00,CLR,SKC,0.00,WeatherDisplay:10.37,2013-08-25 13:23:00,
2013-08-25 08:28:00,77.3,70.6,30.04,SSW,198,6.2,10.4,80,0.00,CLR,SKC,0.00,WeatherDisplay:10.37,2013-08-25 13:28:00,
2013-08-25 08:34:00,77.6,70.9,30.04,SE,145,3.2,6.9,80,0.00,CLR,SKC,0.00,WeatherDisplay:10.37,2013-08-25 13:34:00,
2013-08-25 08:39:00,77.9,71.2,30.04,ENE,77,3.5,4.6,80,0.00,CLR,SKC,0.00,WeatherDisplay:10.37,2013-08-25 13:39:00,
2013-08-25 08:44:00,78.2,71.2,30.04,SSE,152,6.2,10.4,79,0.00,CLR,SKC,0.00,WeatherDisplay:10.37,2013-08-25 13:44:00,
2013-08-25 08:49:00,78.3,70.9,30.04,SSE,162,4.3,6.9,78,0.00,CLR,SKC,0.00,WeatherDisplay:10.37,2013-08-25 13:49:00,
2013-08-25 08:54:00,78.6,71.2,30.04,SE,141,4.0,11.0,78,0.00,CLR,SKC,0.00,WeatherDisplay:10.37,2013-08-25 13:54:00,
2013-08-25 08:59:00,78.9,71.1,30.04,SE,131,7.9,11.5,77,0.00,CLR,SKC,0.00,WeatherDisplay:10.37,2013-08-25 13:59:00,
2013-08-25 09:04:00,79.1,71.3,30.04,South,191,4.9,10.4,77,0.00,CLR,SKC,0.00,WeatherDisplay:10.37,2013-08-25 14:04:00,
2013-08-25 09:09:00,79.3,71.1,30.04,SW,214,7.7,12.7,76,0.00,CLR,SKC,0.00,WeatherDisplay:10.37,2013-08-25 14:09:00,
2013-08-25 09:14:00,79.6,71.4,30.03,SSW,205,4.5,9.2,76,0.00,CLR,SKC,0.00,WeatherDisplay:10.37,2013-08-25 14:14:00,
2013-08-25 09:19:00,79.9,71.3,30.03,SSW,204,3.4,7.0,75,0.00,CLR,SKC,0.00,WeatherDisplay:10.37,2013-08-25 14:19:00,
2013-08-25 09:24:00,80.3,71.3,30.03,SSW,208,7.1,15.0,74,0.00,CLR,SKC,0.00,WeatherDisplay:10.37,2013-08-25 14:24:00,
2013-08-25 09:29:00,80.5,71.4,30.03,ESE,117,8.6,12.0,74,0.00,CLR,SKC,0.00,WeatherDisplay:10.37,2013-08-25 14:29:00,
2013-08-25 09:34:00,80.6,71.1,30.03,SSW,194,8.1,11.5,73,0.00,CLR,SKC,0.00,WeatherDisplay:10.37,2013-08-25 14:34:00,
2013-08-25 09:39:00,80.9,71.4,30.03,SSE,162,4.6,10.4,73,0.00,CLR,SKC,0.00,WeatherDisplay:10.37,2013-08-25 14:39:00,
2013-08-25 09:44:00,81.5,71.6,30.03,SSE,152,5.9,10.4,72,0.00,SCT,SKC,0.00,WeatherDisplay:10.37,2013-08-25 14:44:00,
2013-08-25 09:49:00,81.7,71.8,30.03,SSE,155,5.1,9.2,72,0.00,SCT,SKC,0.00,WeatherDisplay:10.37,2013-08-25 14:49:00,
2013-08-25 09:54:00,82.0,71.7,30.03,SSW,207,6.0,8.1,71,0.00,SCT,SKC,0.00,WeatherDisplay:10.37,2013-08-25 14:54:00,
2013-08-25 09:59:00,82.1,71.8,30.03,ESE,107,5.2,9.2,71,0.00,SCT,SKC,0.00,WeatherDisplay:10.37,2013-08-25 14:59:00,
2013-08-25 10:04:00,82.3,72.0,30.03,South,180,2.4,4.6,71,0.00,CLR,SKC,0.00,WeatherDisplay:10.37,2013-08-25 15:04:00,
2013-08-25 10:09:00,82.7,71.9,30.03,South,177,5.6,11.5,70,0.00,CLR,SKC,0.00,WeatherDisplay:10.37,2013-08-25 15:09:00,
2013-08-25 10:14:00,83.0,72.2,30.02,SSW,198,6.3,15.0,70,0.00,CLR,SKC,0.00,WeatherDisplay:10.37,2013-08-25 15:14:00,
2013-08-25 10:19:00,83.1,72.3,30.02,ESE,122,7.5,12.7,70,0.00,CLR,SKC,0.00,WeatherDisplay:10.37,2013-08-25 15:19:00,
2013-08-25 10:24:00,83.3,72.1,30.02,SSE,155,11.3,15.0,69,0.00,CLR,SKC,0.00,WeatherDisplay:10.37,2013-08-25 15:24:00,
2013-08-25 10:29:00,83.3,72.1,30.02,SSE,153,3.8,6.9,69,0.00,CLR,SKC,0.00,WeatherDisplay:10.37,2013-08-25 15:29:00,
2013-08-25 10:34:00,83.7,72.0,30.02,SSW,198,5.1,9.2,68,0.00,CLR,SKC,0.00,WeatherDisplay:10.37,2013-08-25 15:34:00,
2013-08-25 10:39:00,83.8,72.1,30.03,SSW,197,7.8,13.0,68,0.00,CLR,SKC,0.00,WeatherDisplay:10.37,2013-08-25 15:39:00,
2013-08-25 10:44:00,84.0,72.3,30.02,South,172,4.7,11.5,68,0.00,CLR,SKC,0.00,WeatherDisplay:10.37,2013-08-25 15:44:00,
2013-08-25 10:49:00,84.3,72.6,30.02,South,188,4.0,5.8,68,0.00,CLR,SKC,0.00,WeatherDisplay:10.37,2013-08-25 15:49:00,
2013-08-25 10:54:00,84.6,72.9,30.02,SSE,159,5.2,12.7,68,0.00,CLR,SKC,0.00,WeatherDisplay:10.37,2013-08-25 15:54:00,
2013-08-25 10:59:00,84.7,72.5,30.02,SSW,208,7.2,12.7,67,0.00,CLR,SKC,0.00,WeatherDisplay:10.37,2013-08-25 15:59:00,
2013-08-25 11:04:00,84.8,72.6,30.02,ESE,117,5.8,11.5,67,0.00,CLR,SKC,0.00,WeatherDisplay:10.37,2013-08-25 16:04:00,
2013-08-25 11:09:00,84.9,72.3,30.02,SSE,165,6.4,11.5,66,0.00,CLR,SKC,0.00,WeatherDisplay:10.37,2013-08-25 16:09:00,
2013-08-25 11:14:00,85.4,73.2,30.02,SSW,194,6.0,8.1,67,0.00,CLR,SKC,0.00,WeatherDisplay:10.37,2013-08-25 16:14:00,
2013-08-25 11:19:00,85.9,73.2,30.01,South,172,5.2,8.1,66,0.00,CLR,SKC,0.00,WeatherDisplay:10.37,2013-08-25 16:19:00,
2013-08-25 11:24:00,86.4,73.7,30.01,WSW,256,2.9,4.6,66,0.00,CLR,SKC,0.00,WeatherDisplay:10.37,2013-08-25 16:24:00,
2013-08-25 11:29:00,87.2,73.5,30.01,SSE,166,7.1,9.2,64,0.00,CLR,SKC,0.00,WeatherDisplay:10.37,2013-08-25 16:29:00,
2013-08-25 11:34:00,87.6,73.9,30.01,South,181,4.4,8.1,64,0.00,CLR,SKC,0.00,WeatherDisplay:10.37,2013-08-25 16:34:00,
2013-08-25 11:39:00,87.9,73.3,30.01,SSW,205,6.5,8.1,62,0.00,CLR,SKC,0.00,WeatherDisplay:10.37,2013-08-25 16:39:00,
2013-08-25 11:44:00,88.0,72.9,30.01,WSW,248,4.1,11.5,61,0.00,CLR,SKC,0.00,WeatherDisplay:10.37,2013-08-25 16:44:00,
2013-08-25 11:49:00,88.2,73.0,30.01,SSW,207,7.7,11.5,61,0.00,CLR,SKC,0.00,WeatherDisplay:10.37,2013-08-25 16:49:00,
2013-08-25 11:54:00,88.4,72.7,30.00,West,276,4.9,11.5,60,0.00,CLR,SKC,0.00,WeatherDisplay:10.37,2013-08-25 16:54:00,
2013-08-25 11:59:00,88.6,72.4,30.00,SW,233,4.3,10.4,59,0.00,CLR,SKC,0.00,WeatherDisplay:10.37,2013-08-25 16:59:00,
2013-08-25 12:04:00,88.9,72.7,30.00,SSE,150,5.3,11.5,59,0.00,CLR,SKC,0.00,WeatherDisplay:10.37,2013-08-25 17:04:00,
2013-08-25 12:09:00,89.2,72.5,30.00,SSE,158,6.7,7.0,58,0.00,CLR,SKC,0.00,WeatherDisplay:10.37,2013-08-25 17:09:00,
2013-08-25 12:14:00,89.2,73.0,30.00,SW,228,3.3,6.9,59,0.00,CLR,SKC,0.00,WeatherDisplay:10.37,2013-08-25 17:14:00,
2013-08-25 12:19:00,90.0,73.7,30.00,South,181,3.8,5.8,59,0.00,CLR,SKC,0.00,WeatherDisplay:10.37,2013-08-25 17:19:00,
2013-08-25 12:24:00,90.4,72.6,30.00,South,189,7.3,13.0,56,0.00,CLR,SKC,0.00,WeatherDisplay:10.37,2013-08-25 17:24:00,
2013-08-25 12:29:00,90.1,72.3,29.99,South,179,6.6,15.0,56,0.00,CLR,SKC,0.00,WeatherDisplay:10.37,2013-08-25 17:29:00,
2013-08-25 12:34:00,90.2,72.4,29.99,SW,225,3.7,11.5,56,0.00,CLR,SKC,0.00,WeatherDisplay:10.37,2013-08-25 17:34:00,
2013-08-25 12:39:00,90.4,72.0,29.99,South,188,10.6,16.1,55,0.00,CLR,SKC,0.00,WeatherDisplay:10.37,2013-08-25 17:39:00,
2013-08-25 12:44:00,90.4,72.6,29.99,SSW,203,6.3,8.1,56,0.00,CLR,SKC,0.00,WeatherDisplay:10.37,2013-08-25 17:44:00,
2013-08-25 12:49:00,90.8,71.9,29.99,SSW,213,7.2,13.8,54,0.00,CLR,SKC,0.00,WeatherDisplay:10.37,2013-08-25 17:49:00,
2013-08-25 12:54:00,91.0,72.0,29.99,South,174,5.4,9.2,54,0.00,CLR,SKC,0.00,WeatherDisplay:10.37,2013-08-25 17:54:00,
2013-08-25 12:59:00,91.3,72.3,29.99,SW,218,2.6,8.1,54,0.00,CLR,SKC,0.00,WeatherDisplay:10.37,2013-08-25 17:59:00,
2013-08-25 13:04:00,91.7,72.1,29.99,SE,142,3.7,12.7,53,0.00,CLR,SKC,0.00,WeatherDisplay:10.37,2013-08-25 18:04:00,
2013-08-25 13:09:00,91.6,72.0,29.99,ESE,123,3.7,7.0,53,0.00,CLR,SKC,0.00,WeatherDisplay:10.37,2013-08-25 18:09:00,
2013-08-25 13:14:00,91.5,72.0,29.99,East,92,9.5,18.4,53,0.00,CLR,SKC,0.00,WeatherDisplay:10.37,2013-08-25 18:14:00,
2013-08-25 13:19:00,91.2,72.2,29.99,SE,129,5.9,10.4,54,0.00,CLR,SKC,0.00,WeatherDisplay:10.37,2013-08-25 18:19:00,
2013-08-25 13:24:00,91.7,72.1,29.99,ESE,123,4.4,10.4,53,0.00,CLR,SKC,0.00,WeatherDisplay:10.37,2013-08-25 18:24:00,
2013-08-25 13:29:00,92.0,72.4,29.98,WSW,240,4.5,8.1,53,0.00,CLR,SKC,0.00,WeatherDisplay:10.37,2013-08-25 18:29:00,
2013-08-25 13:34:00,92.0,72.4,29.98,SE,144,5.7,9.2,53,0.00,CLR,SKC,0.00,WeatherDisplay:10.37,2013-08-25 18:34:00,
2013-08-25 13:39:00,92.5,71.7,29.98,SSW,210,10.3,15.0,51,0.00,CLR,SKC,0.00,WeatherDisplay:10.37,2013-08-25 18:39:00,
2013-08-25 13:44:00,92.4,72.2,29.98,West,259,6.4,11.5,52,0.00,CLR,SKC,0.00,WeatherDisplay:10.37,2013-08-25 18:44:00,
2013-08-25 13:49:00,92.7,73.1,29.98,South,186,5.5,10.4,53,0.00,CLR,SKC,0.00,WeatherDisplay:10.37,2013-08-25 18:49:00,
2013-08-25 13:54:00,93.0,72.8,29.98,SSW,203,5.2,10.4,52,0.00,CLR,SKC,0.00,WeatherDisplay:10.37,2013-08-25 18:54:00,
2013-08-25 13:59:00,92.8,72.0,29.98,SW,225,5.0,6.9,51,0.00,CLR,SKC,0.00,WeatherDisplay:10.37,2013-08-25 18:59:00,
2013-08-25 14:04:00,93.0,72.2,29.98,SSW,202,5.2,8.1,51,0.00,CLR,SKC,0.00,WeatherDisplay:10.37,2013-08-25 19:04:00,
2013-08-25 14:09:00,92.9,72.1,29.98,South,169,9.6,16.1,51,0.00,CLR,SKC,0.00,WeatherDisplay:10.37,2013-08-25 19:09:00,
2013-08-25 14:14:00,93.0,71.6,29.98,SSE,153,7.0,11.5,50,0.00,CLR,SKC,0.00,WeatherDisplay:10.37,2013-08-25 19:14:00,
2013-08-25 14:19:00,93.3,72.5,29.98,South,174,3.7,5.0,51,0.00,CLR,SKC,0.00,WeatherDisplay:10.37,2013-08-25 19:19:00,
2013-08-25 14:24:00,93.6,71.6,29.97,SW,222,5.8,11.5,49,0.00,CLR,SKC,0.00,WeatherDisplay:10.37,2013-08-25 19:24:00,
2013-08-25 14:29:00,93.7,71.7,29.97,SW,221,6.2,9.2,49,0.00,CLR,SKC,0.00,WeatherDisplay:10.37,2013-08-25 19:29:00,
2013-08-25 14:34:00,94.1,72.6,29.97,SW,224,2.4,3.5,50,0.00,CLR,SKC,0.00,WeatherDisplay:10.37,2013-08-25 19:34:00,
2013-08-25 14:39:00,94.5,71.8,29.97,SSE,152,6.5,12.7,48,0.00,CLR,SKC,0.00,WeatherDisplay:10.37,2013-08-25 19:39:00,
2013-08-25 14:45:00,94.4,72.3,29.97,SSE,162,6.6,13.0,49,0.00,CLR,SKC,0.00,WeatherDisplay:10.37,2013-08-25 19:45:00,
2013-08-25 14:50:00,94.4,71.7,29.97,SE,141,9.3,13.8,48,0.00,CLR,SKC,0.00,WeatherDisplay:10.37,2013-08-25 19:50:00,
2013-08-25 14:55:00,94.3,71.6,29.97,WSW,242,4.4,16.1,48,0.00,CLR,SKC,0.00,WeatherDisplay:10.37,2013-08-25 19:55:00,
2013-08-25 15:00:00,94.5,71.2,29.97,SW,224,5.0,9.2,47,0.00,CLR,SKC,0.00,WeatherDisplay:10.37,2013-08-25 20:00:00,
2013-08-25 15:05:00,94.6,71.9,29.97,SSE,148,3.4,4.6,48,0.00,CLR,SKC,0.00,WeatherDisplay:10.37,2013-08-25 20:05:00,
2013-08-25 15:10:00,94.9,72.8,29.97,SSW,205,4.1,10.4,49,0.00,CLR,SKC,0.00,WeatherDisplay:10.37,2013-08-25 20:10:00,
2013-08-25 15:15:00,94.6,71.2,29.96,SSW,198,10.3,16.1,47,0.00,CLR,SKC,0.00,WeatherDisplay:10.37,2013-08-25 20:15:00,
2013-08-25 15:20:00,94.5,72.4,29.96,SW,219,4.7,9.2,49,0.00,CLR,SKC,0.00,WeatherDisplay:10.37,2013-08-25 20:20:00,
2013-08-25 15:25:00,94.8,72.0,29.96,South,188,6.1,8.1,48,0.00,CLR,SKC,0.00,WeatherDisplay:10.37,2013-08-25 20:25:00,
2013-08-25 15:30:00,94.7,72.6,29.96,SSE,166,7.3,11.5,49,0.00,CLR,SKC,0.00,WeatherDisplay:10.37,2013-08-25 20:30:00,
2013-08-25 15:35:00,94.6,72.5,29.96,SSW,193,7.8,11.0,49,0.00,CLR,SKC,0.00,WeatherDisplay:10.37,2013-08-25 20:35:00,
2013-08-25 15:40:00,94.4,72.3,29.96,South,170,7.5,11.5,49,0.00,CLR,SKC,0.00,WeatherDisplay:10.37,2013-08-25 20:40:00,
2013-08-25 15:45:00,94.4,71.7,29.96,WSW,239,6.8,11.5,48,0.00,CLR,SKC,0.00,WeatherDisplay:10.37,2013-08-25 20:45:00,
2013-08-25 15:50:00,94.4,71.7,29.96,WSW,255,11.5,20.7,48,0.00,CLR,SKC,0.00,WeatherDisplay:10.37,2013-08-25 20:50:00,
2013-08-25 15:55:00,94.1,71.4,29.95,SSE,160,10.5,19.6,48,0.00,CLR,SKC,0.00,WeatherDisplay:10.37,2013-08-25 20:55:00,
2013-08-25 16:00:00,94.0,71.9,29.95,West,267,6.6,10.4,49,0.00,CLR,SKC,0.00,WeatherDisplay:10.37,2013-08-25 21:00:00,
2013-08-25 16:05:00,94.1,72.0,29.95,SSW,210,5.4,8.1,49,0.00,CLR,SKC,0.00,WeatherDisplay:10.37,2013-08-25 21:05:00,
2013-08-25 16:10:00,94.3,71.6,29.95,ESE,120,9.8,16.1,48,0.00,CLR,SKC,0.00,WeatherDisplay:10.37,2013-08-25 21:10:00,
2013-08-25 16:15:00,94.1,72.0,29.95,South,177,4.5,11.5,49,0.00,CLR,SKC,0.00,WeatherDisplay:10.37,2013-08-25 21:15:00,
2013-08-25 16:20:00,94.2,71.5,29.95,WSW,249,5.9,17.3,48,0.00,CLR,SKC,0.00,WeatherDisplay:10.37,2013-08-25 21:20:00,
2013-08-25 16:25:00,94.1,71.4,29.95,SW,214,7.4,12.7,48,0.00,CLR,SKC,0.00,WeatherDisplay:10.37,2013-08-25 21:25:00,
2013-08-25 16:30:00,94.3,72.2,29.96,SSW,194,3.0,5.8,49,0.00,CLR,SKC,0.00,WeatherDisplay:10.37,2013-08-25 21:30:00,
2013-08-25 16:35:00,94.7,72.0,29.95,SSW,194,3.3,10.4,48,0.00,CLR,SKC,0.00,WeatherDisplay:10.37,2013-08-25 21:35:00,
2013-08-25 16:40:00,94.9,72.1,29.95,SW,224,3.2,5.0,48,0.00,CLR,SKC,0.00,WeatherDisplay:10.37,2013-08-25 21:40:00,
2013-08-25 16:45:00,95.0,72.2,29.95,SW,214,8.9,12.7,48,0.00,CLR,SKC,0.00,WeatherDisplay:10.37,2013-08-25 21:45:00,
2013-08-25 16:50:00,94.4,72.3,29.95,SSE,162,8.8,13.0,49,0.00,CLR,SKC,0.00,WeatherDisplay:10.37,2013-08-25 21:50:00,
2013-08-25 16:55:00,94.1,72.0,29.95,SSE,155,6.4,13.8,49,0.00,CLR,SKC,0.00,WeatherDisplay:10.37,2013-08-25 21:55:00,
2013-08-25 17:00:00,94.3,72.2,29.95,SW,224,4.6,7.0,49,0.00,CLR,SKC,0.00,WeatherDisplay:10.37,2013-08-25 22:00:00,
2013-08-25 17:05:00,94.2,72.1,29.95,SW,217,7.5,11.5,49,0.00,CLR,SKC,0.00,WeatherDisplay:10.37,2013-08-25 22:05:00,
2013-08-25 17:10:00,94.1,72.6,29.96,SW,219,5.9,12.7,50,0.00,CLR,SKC,0.00,WeatherDisplay:10.37,2013-08-25 22:10:00,
2013-08-25 17:15:00,94.1,72.0,29.95,SSW,213,5.1,10.4,49,0.00,CLR,SKC,0.00,WeatherDisplay:10.37,2013-08-25 22:15:00,
2013-08-25 17:20:00,94.3,72.2,29.95,SSW,200,3.8,12.7,49,0.00,CLR,SKC,0.00,WeatherDisplay:10.37,2013-08-25 22:20:00,
2013-08-25 17:25:00,94.2,73.3,29.95,SE,134,5.7,7.0,51,0.00,CLR,SKC,0.00,WeatherDisplay:10.37,2013-08-25 22:25:00,
2013-08-25 17:30:00,94.0,72.5,29.95,SSE,155,6.2,12.7,50,0.00,CLR,SKC,0.00,WeatherDisplay:10.37,2013-08-25 22:30:00,
2013-08-25 17:35:00,93.9,73.0,29.95,SE,127,5.5,11.5,51,0.00,CLR,SKC,0.00,WeatherDisplay:10.37,2013-08-25 22:35:00,
2013-08-25 17:40:00,93.7,72.8,29.95,SSW,193,5.8,11.5,51,0.00,CLR,SKC,0.00,WeatherDisplay:10.37,2013-08-25 22:40:00,
2013-08-25 17:45:00,93.4,72.6,29.96,South,173,5.9,11.5,51,0.00,CLR,SKC,0.00,WeatherDisplay:10.37,2013-08-25 22:45:00,
2013-08-25 17:50:00,93.2,72.4,29.96,ESE,113,5.8,11.5,51,0.00,CLR,SKC,0.00,WeatherDisplay:10.37,2013-08-25 22:50:00,
2013-08-25 17:55:00,93.3,73.0,29.96,SW,215,4.1,6.9,52,0.00,CLR,SKC,0.00,WeatherDisplay:10.37,2013-08-25 22:55:00,
2013-08-25 18:00:00,93.3,73.0,29.96,SSE,162,4.7,9.2,52,0.00,CLR,SKC,0.00,WeatherDisplay:10.37,2013-08-25 23:00:00,
2013-08-25 18:05:00,93.2,73.0,29.96,SSW,198,7.7,12.7,52,0.00,CLR,SKC,0.00,WeatherDisplay:10.37,2013-08-25 23:05:00,
2013-08-25 18:10:00,93.2,73.0,29.96,SE,124,4.6,11.5,52,0.00,CLR,SKC,0.00,WeatherDisplay:10.37,2013-08-25 23:10:00,
2013-08-25 18:15:00,93.1,73.4,29.96,South,183,8.8,15.0,53,0.00,CLR,SKC,0.00,WeatherDisplay:10.37,2013-08-25 23:15:00,
2013-08-25 18:20:00,92.9,73.2,29.96,SSE,162,3.8,10.4,53,0.00,CLR,SKC,0.00,WeatherDisplay:10.37,2013-08-25 23:20:00,
2013-08-25 18:25:00,92.8,73.7,29.96,South,174,5.2,8.1,54,0.00,CLR,SKC,0.00,WeatherDisplay:10.37,2013-08-25 23:25:00,
2013-08-25 18:30:00,92.6,73.5,29.96,SSE,159,8.6,16.1,54,0.00,CLR,SKC,0.00,WeatherDisplay:10.37,2013-08-25 23:30:00,
2013-08-25 18:35:00,92.2,73.7,29.95,SE,129,6.1,8.1,55,0.00,CLR,SKC,0.00,WeatherDisplay:10.37,2013-08-25 23:35:00,
2013-08-25 18:40:00,91.7,73.8,29.95,SW,224,5.3,6.9,56,0.00,CLR,SKC,0.00,WeatherDisplay:10.37,2013-08-25 23:40:00,
2013-08-25 18:45:00,91.5,73.6,29.95,SE,130,9.3,11.5,56,0.00,CLR,SKC,0.00,WeatherDisplay:10.37,2013-08-25 23:45:00,
2013-08-25 18:50:00,91.3,73.9,29.95,South,188,6.4,9.2,57,0.00,CLR,SKC,0.00,WeatherDisplay:10.37,2013-08-25 23:50:00,
2013-08-25 18:55:00,91.3,74.4,29.95,SSW,194,7.7,7.7,58,0.00,CLR,SKC,0.00,WeatherDisplay:10.37,2013-08-25 23:55:00,
2013-08-25 19:00:00,91.1,74.3,29.95,SE,141,9.8,13.8,58,0.00,CLR,SKC,0.00,WeatherDisplay:10.37,2013-08-26 00:00:00,
2013-08-25 19:05:00,90.8,74.5,29.95,SSW,206,8.4,11.5,59,0.00,CLR,SKC,0.00,WeatherDisplay:10.37,2013-08-26 00:05:00,
2013-08-25 19:10:00,90.4,74.6,29.95,South,179,5.7,12.7,60,0.00,CLR,SKC,0.00,WeatherDisplay:10.37,2013-08-26 00:10:00,
2013-08-25 19:15:00,90.2,74.4,29.95,South,178,8.0,15.0,60,0.00,CLR,SKC,0.00,WeatherDisplay:10.37,2013-08-26 00:15:00,
2013-08-25 19:20:00,89.8,75.0,29.95,SW,224,3.1,5.8,62,0.00,CLR,SKC,0.00,WeatherDisplay:10.37,2013-08-26 00:20:00,
2013-08-25 19:25:00,89.5,74.8,29.95,WSW,256,6.0,6.9,62,0.00,CLR,SKC,0.00,WeatherDisplay:10.37,2013-08-26 00:25:00,
2013-08-25 19:30:00,89.2,75.0,29.95,South,173,5.0,15.0,63,0.00,CLR,SKC,0.00,WeatherDisplay:10.37,2013-08-26 00:30:00,
2013-08-25 19:35:00,89.0,74.8,29.95,SE,127,2.1,11.5,63,0.00,CLR,SKC,0.00,WeatherDisplay:10.37,2013-08-26 00:35:00,
2013-08-25 19:40:00,88.8,75.0,29.95,East,97,3.0,11.5,64,0.00,CLR,SKC,0.00,WeatherDisplay:10.37,2013-08-26 00:40:00,
2013-08-25 19:45:00,88.6,74.9,29.96,East,98,3.6,11.5,64,0.00,CLR,SKC,0.00,WeatherDisplay:10.37,2013-08-26 00:45:00,
2013-08-25 19:50:00,88.4,74.7,29.96,SSW,193,4.9,6.9,64,0.00,CLR,SKC,0.00,WeatherDisplay:10.37,2013-08-26 00:50:00,
2013-08-25 19:55:00,88.2,74.9,29.96,SSE,155,2.5,12.7,65,0.00,CLR,SKC,0.00,WeatherDisplay:10.37,2013-08-26 00:55:00,
2013-08-25 20:00:00,88.0,74.3,29.96,SE,138,6.4,11.5,64,0.00,CLR,SKC,0.00,WeatherDisplay:10.37,2013-08-26 01:00:00,
2013-08-25 20:05:00,87.9,74.2,29.96,South,169,9.8,11.5,64,0.00,CLR,SKC,0.00,WeatherDisplay:10.37,2013-08-26 01:05:00,
2013-08-25 20:10:00,87.8,74.1,29.96,SE,127,3.8,7.0,64,0.00,CLR,SKC,0.00,WeatherDisplay:10.37,2013-08-26 01:10:00,
2013-08-25 20:15:00,87.6,73.9,29.96,South,191,6.1,9.2,64,0.00,CLR,SKC,0.00,WeatherDisplay:10.37,2013-08-26 01:15:00,
2013-08-25 20:20:00,87.4,73.7,29.96,South,175,3.2,9.2,64,0.00,CLR,SKC,0.00,WeatherDisplay:10.37,2013-08-26 01:20:00,
2013-08-25 20:25:00,87.3,73.6,29.96,SSE,153,3.1,6.9,64,0.00,CLR,SKC,0.00,WeatherDisplay:10.37,2013-08-26 01:25:00,
2013-08-25 20:30:00,87.1,73.4,29.96,SSE,148,4.9,11.5,64,0.00,CLR,SKC,0.00,WeatherDisplay:10.37,2013-08-26 01:30:00,
2013-08-25 20:35:00,87.1,73.4,29.97,SW,214,4.0,6.9,64,0.00,CLR,SKC,0.00,WeatherDisplay:10.37,2013-08-26 01:35:00,
2013-08-25 20:40:00,86.9,73.3,29.97,South,187,7.7,11.5,64,0.00,CLR,SKC,0.00,WeatherDisplay:10.37,2013-08-26 01:40:00,
2013-08-25 20:45:00,86.8,73.2,29.97,SE,139,6.2,10.4,64,0.00,CLR,SKC,0.00,WeatherDisplay:10.37,2013-08-26 01:45:00,
2013-08-25 20:50:00,86.6,73.4,29.97,SSE,159,4.0,10.4,65,0.00,CLR,SKC,0.00,WeatherDisplay:10.37,2013-08-26 01:50:00,
2013-08-25 20:56:00,86.4,73.7,29.97,SE,138,4.8,5.8,66,0.00,CLR,SKC,0.00,WeatherDisplay:10.37,2013-08-26 01:56:00,
2013-08-25 21:01:00,86.1,73.9,29.97,SSE,167,3.4,5.8,67,0.00,CLR,SKC,0.00,WeatherDisplay:10.37,2013-08-26 02:01:00,
2013-08-25 21:06:00,85.8,74.0,29.98,SSE,168,5.9,10.4,68,0.00,CLR,SKC,0.00,WeatherDisplay:10.37,2013-08-26 02:06:00,
2013-08-25 21:11:00,85.6,74.3,29.98,SE,139,3.0,5.0,69,0.00,CLR,SKC,0.00,WeatherDisplay:10.37,2013-08-26 02:11:00,
2013-08-25 21:16:00,85.4,74.5,29.98,SSW,192,4.5,6.9,70,0.00,CLR,SKC,0.00,WeatherDisplay:10.37,2013-08-26 02:16:00,
2013-08-25 21:21:00,85.1,74.2,29.98,SE,143,3.5,9.2,70,0.00,CLR,SKC,0.00,WeatherDisplay:10.37,2013-08-26 02:21:00,
2013-08-25 21:26:00,84.9,74.4,29.98,SE,145,3.9,5.8,71,0.00,CLR,SKC,0.00,WeatherDisplay:10.37,2013-08-26 02:26:00,
2013-08-25 21:31:00,84.7,74.3,29.98,South,173,6.9,11.5,71,0.00,CLR,SKC,0.00,WeatherDisplay:10.37,2013-08-26 02:31:00,
2013-08-25 21:36:00,84.6,74.6,29.98,SSE,153,2.8,4.6,72,0.00,CLR,SKC,0.00,WeatherDisplay:10.37,2013-08-26 02:36:00,
2013-08-25 21:41:00,84.4,74.4,29.99,SSE,153,5.9,10.4,72,0.00,CLR,SKC,0.00,WeatherDisplay:10.37,2013-08-26 02:41:00,
2013-08-25 21:46:00,84.2,74.6,29.99,SE,131,3.6,5.0,73,0.00,CLR,SKC,0.00,WeatherDisplay:10.37,2013-08-26 02:46:00,
2013-08-25 21:51:00,84.1,74.5,29.99,SE,127,5.5,7.0,73,0.00,CLR,SKC,0.00,WeatherDisplay:10.37,2013-08-26 02:51:00,
2013-08-25 21:56:00,84.0,74.4,29.99,SSW,210,5.9,10.4,73,0.00,CLR,SKC,0.00,WeatherDisplay:10.37,2013-08-26 02:56:00,
2013-08-25 22:01:00,84.0,74.4,29.99,SE,124,4.8,7.0,73,0.00,CLR,SKC,0.00,WeatherDisplay:10.37,2013-08-26 03:01:00,
2013-08-25 22:06:00,83.9,74.3,29.99,SE,131,4.1,8.0,73,0.00,CLR,SKC,0.00,WeatherDisplay:10.37,2013-08-26 03:06:00,
2013-08-25 22:11:00,83.8,74.2,29.99,SE,146,6.7,11.5,73,0.00,CLR,SKC,0.00,WeatherDisplay:10.37,2013-08-26 03:11:00,
2013-08-25 22:16:00,83.7,74.1,29.99,South,174,3.6,6.9,73,0.00,CLR,SKC,0.00,WeatherDisplay:10.37,2013-08-26 03:16:00,
2013-08-25 22:21:00,83.6,74.0,29.99,SSW,197,4.5,6.0,73,0.00,CLR,SKC,0.00,WeatherDisplay:10.37,2013-08-26 03:21:00,
2013-08-25 22:26:00,83.5,74.3,30.00,South,181,4.9,7.0,74,0.00,CLR,SKC,0.00,WeatherDisplay:10.37,2013-08-26 03:26:00,
2013-08-25 22:31:00,83.3,74.1,29.99,SSE,159,5.5,10.4,74,0.00,CLR,SKC,0.00,WeatherDisplay:10.37,2013-08-26 03:31:00,
2013-08-25 22:36:00,83.2,74.0,29.99,South,181,4.8,9.0,74,0.00,CLR,SKC,0.00,WeatherDisplay:10.37,2013-08-26 03:36:00,
2013-08-25 22:41:00,83.2,74.0,29.99,SSW,203,6.6,11.5,74,0.00,CLR,SKC,0.00,WeatherDisplay:10.37,2013-08-26 03:41:00,
2013-08-25 22:46:00,83.2,73.6,29.99,SE,131,6.3,10.4,73,0.00,CLR,SKC,0.00,WeatherDisplay:10.37,2013-08-26 03:46:00,
2013-08-25 22:51:00,83.1,73.5,29.99,SSE,156,4.5,9.2,73,0.00,CLR,SKC,0.00,WeatherDisplay:10.37,2013-08-26 03:51:00,
2013-08-25 22:56:00,83.0,73.4,29.99,SSW,210,5.6,8.1,73,0.00,CLR,SKC,0.00,WeatherDisplay:10.37,2013-08-26 03:56:00,
2013-08-25 23:01:00,82.9,73.4,30.00,SE,142,6.0,14.0,73,0.00,CLR,SKC,0.00,WeatherDisplay:10.37,2013-08-26 04:01:00,
2013-08-25 23:06:00,82.9,73.4,30.00,SW,219,5.5,8.1,73,0.00,CLR,SKC,0.00,WeatherDisplay:10.37,2013-08-26 04:06:00,
2013-08-25 23:11:00,82.8,73.3,30.00,SE,138,4.9,11.5,73,0.00,CLR,SKC,0.00,WeatherDisplay:10.37,2013-08-26 04:11:00,
2013-08-25 23:16:00,82.7,73.2,30.00,SSE,153,2.8,11.5,73,0.00,CLR,SKC,0.00,WeatherDisplay:10.37,2013-08-26 04:16:00,
2013-08-25 23:21:00,82.6,73.1,30.00,South,180,3.8,6.9,73,0.00,CLR,SKC,0.00,WeatherDisplay:10.37,2013-08-26 04:21:00,
2013-08-25 23:26:00,82.5,72.6,30.00,SSE,167,3.7,10.4,72,0.00,CLR,SKC,0.00,WeatherDisplay:10.37,2013-08-26 04:26:00,
2013-08-25 23:31:00,82.5,72.6,30.00,SW,229,6.6,9.2,72,0.00,CLR,SKC,0.00,WeatherDisplay:10.37,2013-08-26 04:31:00,
2013-08-25 23:36:00,82.4,72.5,30.00,South,169,4.1,11.5,72,0.00,CLR,SKC,0.00,WeatherDisplay:10.37,2013-08-26 04:36:00,
2013-08-25 23:41:00,82.3,72.4,30.00,SE,142,4.5,11.5,72,0.00,CLR,SKC,0.00,WeatherDisplay:10.37,2013-08-26 04:41:00,
2013-08-25 23:46:00,82.3,72.4,30.00,South,184,4.2,11.5,72,0.00,CLR,SKC,0.00,WeatherDisplay:10.37,2013-08-26 04:46:00,
2013-08-25 23:51:00,82.2,71.9,29.99,SSE,149,4.7,10.4,71,0.00,CLR,SKC,0.00,WeatherDisplay:10.37,2013-08-26 04:51:00,
2013-08-25 23:56:00,82.1,71.8,29.99,SSE,148,7.7,9.2,71,0.00,CLR,SKC,0.00,WeatherDisplay:10.37,2013-08-26 04:56:00,